Location: Eberbach
(49.4690°N, 8.9930°E)
Time: 13:45:22
(UTC+02:00)

ISS - Visible Passes

Search period start: 28 September 2021 00:00
Search period end: 08 October 2021 00:00
Orbit: 417 x 422 km, 51.6° (Epoch: 28 September)

Date Brightness Start Highest point End Pass type
(mag) Time Alt. Az. Time Alt. Az. Time Alt. Az.
28 Sep -3.9 21:05:46 10° WNW 21:09:09 88° SSW 21:09:09 88° SSW visible
29 Sep -3.7 20:18:20 10° WNW 20:21:43 75° NNE 20:23:32 25° E visible
29 Sep -1.1 21:55:19 10° W 21:56:29 18° W 21:56:29 18° W visible
30 Sep -3.1 21:07:43 10° WNW 21:10:50 47° SW 21:10:50 47° SW visible
01 Oct -3.6 20:20:07 10° WNW 20:23:28 66° SSW 20:25:10 26° SE visible
01 Oct -0.6 21:57:44 10° W 21:58:08 12° WSW 21:58:08 12° WSW visible
02 Oct -3.7 19:32:29 10° WNW 19:35:52 88° SSW 19:39:14 10° ESE visible
02 Oct -1.9 21:09:38 10° W 21:12:21 23° SW 21:12:27 22° SW visible
03 Oct -2.4 20:21:43 10° W 20:24:47 33° SSW 20:26:48 17° SSE visible
04 Oct -2.9 19:33:51 10° WNW 19:37:07 47° SSW 19:40:21 10° SE visible
05 Oct -1.1 20:23:33 10° W 20:25:37 15° SW 20:27:42 10° S visible
06 Oct -1.5 19:35:11 10° W 19:37:54 23° SW 19:40:37 10° SSE visible
